N154ER KLAL-KTPA

Flight info

Callsign N154ER
Flight time 0h 18m
Altitude 4000
Route KLAL MOLIE KTPA
Aircraft PA28/L-SG/C

Departure

Time 2026-04-26 20:15
Airport Lakeland Linder International Airport (KLAL)

Arrival

Time 2026-04-26 20:34
Airport Tampa International Airport (KTPA)
Time Latitude Longitude Altitude Speed Heading
2026-04-26 20:08 27.99193 -82.00779 163 ft 0 kts 213°
2026-04-26 20:12 27.99189 -82.00782 144 ft 3 kts 213°
2026-04-26 20:12 27.99147 -82.00772 145 ft 8 kts 159°
2026-04-26 20:13 27.99090 -82.00765 145 ft 9 kts 179°
2026-04-26 20:13 27.99047 -82.00764 145 ft 4 kts 178°
2026-04-26 20:13 27.99024 -82.00765 145 ft 3 kts 185°
2026-04-26 20:13 27.99017 -82.00766 145 ft 0 kts 182°
2026-04-26 20:14 27.98965 -82.00769 144 ft 16 kts 196°
2026-04-26 20:14 27.98929 -82.00936 142 ft 42 kts 270°
2026-04-26 20:14 27.98930 -82.01415 205 ft 73 kts 269°
2026-04-26 20:15 27.98932 -82.02031 385 ft 81 kts 271°
2026-04-26 20:15 27.98901 -82.02662 637 ft 81 kts 266°
2026-04-26 20:15 27.98859 -82.03348 691 ft 96 kts 269°
2026-04-26 20:15 27.98909 -82.04074 952 ft 86 kts 271°
2026-04-26 20:16 27.98874 -82.04725 1165 ft 92 kts 267°
2026-04-26 20:16 27.98845 -82.05452 1349 ft 86 kts 269°
2026-04-26 20:16 27.98847 -82.06156 1449 ft 96 kts 275°
2026-04-26 20:16 27.98933 -82.06859 1715 ft 84 kts 277°
2026-04-26 20:17 27.98993 -82.07487 1849 ft 87 kts 274°
2026-04-26 20:17 27.99055 -82.08236 1931 ft 94 kts 275°
2026-04-26 20:17 27.99076 -82.08931 2079 ft 88 kts 272°
2026-04-26 20:17 27.99097 -82.09410 2087 ft 95 kts 274°
2026-04-26 20:18 27.99132 -82.10339 2279 ft 89 kts 275°
2026-04-26 20:18 27.99154 -82.11048 2405 ft 88 kts 275°
2026-04-26 20:18 27.99169 -82.11725 2525 ft 86 kts 274°
2026-04-26 20:18 27.99217 -82.12395 2637 ft 88 kts 276°
2026-04-26 20:19 27.99290 -82.13104 2743 ft 90 kts 276°
2026-04-26 20:19 27.99344 -82.13796 2982 ft 88 kts 275°
2026-04-26 20:19 27.99404 -82.14491 3125 ft 93 kts 275°
2026-04-26 20:19 27.99468 -82.15199 3383 ft 87 kts 278°
2026-04-26 20:20 27.99569 -82.15871 3633 ft 86 kts 279°
2026-04-26 20:20 27.99656 -82.16546 3846 ft 81 kts 279°
2026-04-26 20:20 27.99711 -82.17163 3996 ft 86 kts 273°
2026-04-26 20:20 27.99750 -82.17863 3981 ft 89 kts 278°
2026-04-26 20:21 27.99843 -82.18559 3953 ft 91 kts 279°
2026-04-26 20:21 27.99957 -82.19246 3996 ft 86 kts 278°
2026-04-26 20:21 28.00016 -82.19948 3986 ft 95 kts 273°
2026-04-26 20:21 28.00025 -82.20646 4078 ft 83 kts 269°
2026-04-26 20:22 27.99985 -82.21321 4007 ft 90 kts 271°
2026-04-26 20:22 27.99997 -82.22015 4005 ft 85 kts 275°
2026-04-26 20:22 28.00043 -82.22685 3975 ft 88 kts 276°
2026-04-26 20:22 28.00138 -82.23364 4028 ft 85 kts 283°
2026-04-26 20:23 28.00321 -82.24011 3978 ft 90 kts 289°
2026-04-26 20:23 28.00578 -82.24659 3958 ft 93 kts 294°
2026-04-26 20:23 28.00843 -82.25289 3990 ft 89 kts 292°
2026-04-26 20:23 28.01171 -82.25909 3941 ft 91 kts 297°
2026-04-26 20:24 28.01358 -82.26570 3945 ft 91 kts 282°
2026-04-26 20:24 28.01532 -82.27262 3986 ft 92 kts 288°
2026-04-26 20:24 28.01724 -82.27948 3923 ft 93 kts 271°
2026-04-26 20:24 28.01361 -82.28605 3792 ft 108 kts 218°
2026-04-26 20:25 28.00787 -82.29017 3914 ft 93 kts 221°
2026-04-26 20:25 28.00427 -82.29316 3855 ft 101 kts 223°
2026-04-26 20:25 27.99714 -82.29917 3949 ft 93 kts 231°
2026-04-26 20:25 27.99265 -82.30458 4044 ft 94 kts 233°
2026-04-26 20:26 27.98740 -82.30924 4076 ft 101 kts 219°
2026-04-26 20:26 27.98115 -82.31302 4108 ft 102 kts 211°
2026-04-26 20:26 27.97464 -82.31628 3870 ft 109 kts 216°
2026-04-26 20:26 27.96815 -82.32099 3443 ft 109 kts 226°
2026-04-26 20:27 27.96374 -82.32702 3189 ft 91 kts 257°
2026-04-26 20:27 27.96377 -82.33467 2625 ft 106 kts 277°
2026-04-26 20:27 27.96484 -82.34261 2277 ft 97 kts 277°
2026-04-26 20:27 27.96583 -82.35010 1946 ft 96 kts 276°
2026-04-26 20:28 27.96630 -82.35733 1767 ft 93 kts 271°
2026-04-26 20:28 27.96622 -82.36488 1602 ft 87 kts 272°
2026-04-26 20:28 27.96624 -82.37121 1615 ft 84 kts 271°
2026-04-26 20:28 27.96642 -82.37793 1583 ft 86 kts 274°
2026-04-26 20:29 27.96670 -82.38448 1608 ft 84 kts 271°
2026-04-26 20:29 27.96694 -82.39128 1564 ft 89 kts 271°
2026-04-26 20:29 27.96716 -82.39815 1594 ft 87 kts 271°
2026-04-26 20:29 27.96756 -82.40483 1618 ft 89 kts 273°
2026-04-26 20:30 27.96798 -82.41172 1702 ft 80 kts 266°
2026-04-26 20:30 27.96812 -82.41821 1636 ft 87 kts 272°
2026-04-26 20:30 27.96849 -82.42514 1639 ft 85 kts 267°
2026-04-26 20:30 27.96824 -82.43113 1588 ft 74 kts 266°
2026-04-26 20:31 27.96821 -82.43729 1418 ft 83 kts 268°
2026-04-26 20:31 27.96823 -82.44373 1362 ft 82 kts 271°
2026-04-26 20:31 27.96853 -82.45026 1260 ft 83 kts 272°
2026-04-26 20:31 27.96863 -82.45685 1095 ft 82 kts 274°
2026-04-26 20:32 27.96916 -82.46331 957 ft 83 kts 272°
2026-04-26 20:32 27.96954 -82.46972 844 ft 80 kts 268°
2026-04-26 20:32 27.96958 -82.47602 674 ft 84 kts 270°
2026-04-26 20:32 27.96962 -82.48222 593 ft 75 kts 275°
2026-04-26 20:33 27.96962 -82.48821 491 ft 74 kts 270°
2026-04-26 20:33 27.96965 -82.49408 450 ft 76 kts 272°
2026-04-26 20:33 27.97015 -82.50017 411 ft 72 kts 270°
2026-04-26 20:33 27.97015 -82.50550 233 ft 64 kts 271°
2026-04-26 20:34 27.97038 -82.51042 154 ft 64 kts 270°
2026-04-26 20:34 27.97029 -82.51548 62 ft 58 kts 272°
2026-04-26 20:34 27.97035 -82.51920 29 ft 36 kts 273°
2026-04-26 20:34 27.97042 -82.52107 35 ft 14 kts 272°
2026-04-26 20:35 27.97035 -82.52195 37 ft 10 kts 234°
2026-04-26 20:35 27.96969 -82.52219 38 ft 8 kts 181°
2026-04-26 20:35 27.96966 -82.52219 38 ft 0 kts 177°